Location: Seattle
(47.6064°N, 122.3308°W)
Time: 00:31:31
(UTC-08:00)

Tiros 1 - Pass Details

Date: 26 November 2020
Orbit: 630 x 663 km, 48.4° (Epoch: 28 January)

Event Time Altitude Azimuth Distance (km) Brightness Sun altitude
Rises 19:05:15 0° 272° (W) 2,988 11.9 -26.8°
Reaches altitude 10° 19:07:37 10° 273° (W) 2,072 10.7 -27.2°
Enters shadow 19:11:31 58° 287° (WNW) 762 7.6 -27.9°
Maximum altitude 19:12:24 80° 0° (N) 668 - -28.0°
Drops below altitude 10° 19:17:09 10° 89° (E) 2,052 - -28.8°
Sets 19:19:29 0° 90° (E) 2,957 - -29.2°
